Time,TemperatureF,DewpointF,PressureIn,WindDirection,WindDirectionDegrees,WindSpeedMPH,WindSpeedGustMPH,Humidity,HourlyPrecipIn,Conditions,Clouds,dailyrainin,SoftwareType,DateUTC
2013-01-19 00:04:00,24.0,13.0,30.61,West,280,1.0,3.0,61,-99.99,,,-99.99,,2013-01-19 05:04:00,
2013-01-19 00:12:00,24.0,13.0,30.61,West,280,1.0,3.0,61,-99.99,,,-99.99,,2013-01-19 05:12:00,
2013-01-19 00:23:00,24.0,13.0,30.60,WNW,295,2.0,5.0,61,-99.99,,,-99.99,,2013-01-19 05:23:00,
2013-01-19 00:33:00,25.0,13.0,30.58,WNW,290,2.0,8.0,61,-99.99,,,-99.99,,2013-01-19 05:33:00,
2013-01-19 00:43:00,25.0,13.0,30.58,WNW,290,2.0,8.0,61,-99.99,,,-99.99,,2013-01-19 05:43:00,
2013-01-19 00:53:00,26.0,14.0,30.58,West,266,3.0,9.0,61,-99.99,,,-99.99,,2013-01-19 05:53:00,
2013-01-19 01:03:00,26.0,15.0,30.57,SW,226,3.0,8.0,62,-99.99,,,-99.99,,2013-01-19 06:03:00,
2013-01-19 01:12:00,26.0,15.0,30.57,SW,226,3.0,8.0,62,-99.99,,,-99.99,,2013-01-19 06:12:00,
2013-01-19 01:23:00,27.0,15.0,30.58,West,276,3.0,7.0,61,-99.99,,,-99.99,,2013-01-19 06:23:00,
2013-01-19 01:33:00,27.0,16.0,30.58,WNW,295,3.0,7.0,63,-99.99,,,-99.99,,2013-01-19 06:33:00,
2013-01-19 01:43:00,27.0,16.0,30.58,WNW,295,3.0,7.0,63,-99.99,,,-99.99,,2013-01-19 06:43:00,
2013-01-19 01:52:00,28.0,17.0,30.57,WNW,302,3.0,7.0,64,-99.99,,,-99.99,,2013-01-19 06:52:00,
2013-01-19 02:02:00,28.0,17.0,30.56,WNW,290,3.0,6.0,63,-99.99,,,-99.99,,2013-01-19 07:02:00,
2013-01-19 02:12:00,28.0,17.0,30.56,WNW,290,3.0,6.0,63,-99.99,,,-99.99,,2013-01-19 07:12:00,
2013-01-19 02:22:00,29.0,16.0,30.56,West,278,4.0,8.0,59,-99.99,,,-99.99,,2013-01-19 07:22:00,
2013-01-19 02:33:00,29.0,17.0,30.56,SSW,205,3.0,7.0,61,-99.99,,,-99.99,,2013-01-19 07:33:00,
2013-01-19 02:43:00,29.0,17.0,30.56,SSW,205,3.0,7.0,61,-99.99,,,-99.99,,2013-01-19 07:43:00,
2013-01-19 02:53:00,30.0,19.0,30.55,NNE,23,3.0,8.0,64,-99.99,,,-99.99,,2013-01-19 07:53:00,
2013-01-19 03:02:00,30.0,20.0,30.55,West,269,4.0,11.0,65,-99.99,,,-99.99,,2013-01-19 08:02:00,
2013-01-19 03:12:00,30.0,20.0,30.55,West,269,4.0,11.0,65,-99.99,,,-99.99,,2013-01-19 08:12:00,
2013-01-19 03:22:00,30.0,19.0,30.55,WNW,283,4.0,11.0,64,-99.99,,,-99.99,,2013-01-19 08:22:00,
2013-01-19 03:32:00,30.0,20.0,30.54,WSW,256,3.0,9.0,66,-99.99,,,-99.99,,2013-01-19 08:32:00,
2013-01-19 03:43:00,30.0,20.0,30.54,WSW,256,3.0,9.0,66,-99.99,,,-99.99,,2013-01-19 08:43:00,
2013-01-19 03:52:00,30.0,20.0,30.53,WNW,287,3.0,8.0,67,-99.99,,,-99.99,,2013-01-19 08:52:00,
2013-01-19 04:02:00,30.0,20.0,30.53,WSW,240,3.0,10.0,65,-99.99,,,-99.99,,2013-01-19 09:02:00,
2013-01-19 04:12:00,30.0,20.0,30.53,WSW,240,3.0,10.0,65,-99.99,,,-99.99,,2013-01-19 09:12:00,
2013-01-19 04:23:00,31.0,21.0,30.52,WNW,287,3.0,9.0,65,-99.99,,,-99.99,,2013-01-19 09:23:00,
2013-01-19 04:33:00,31.0,21.0,30.51,West,264,3.0,8.0,66,-99.99,,,-99.99,,2013-01-19 09:33:00,
2013-01-19 04:42:00,31.0,21.0,30.51,West,264,3.0,8.0,66,-99.99,,,-99.99,,2013-01-19 09:42:00,
2013-01-19 04:53:00,31.0,21.0,30.50,West,278,3.0,6.0,65,-99.99,,,-99.99,,2013-01-19 09:53:00,
2013-01-19 05:02:00,31.0,21.0,30.50,West,266,4.0,10.0,66,-99.99,,,-99.99,,2013-01-19 10:02:00,
2013-01-19 05:12:00,31.0,21.0,30.50,West,266,4.0,10.0,66,-99.99,,,-99.99,,2013-01-19 10:12:00,
2013-01-19 05:23:00,31.0,22.0,30.50,West,274,3.0,7.0,68,-99.99,,,-99.99,,2013-01-19 10:23:00,
2013-01-19 05:32:00,32.0,22.0,30.49,West,262,3.0,9.0,67,-99.99,,,-99.99,,2013-01-19 10:32:00,
2013-01-19 05:43:00,32.0,22.0,30.49,West,262,3.0,9.0,67,-99.99,,,-99.99,,2013-01-19 10:43:00,
2013-01-19 05:53:00,32.0,23.0,30.49,WNW,284,4.0,11.0,68,-99.99,,,-99.99,,2013-01-19 10:53:00,
2013-01-19 06:03:00,33.0,24.0,30.49,WNW,291,5.0,13.0,68,-99.99,,,-99.99,,2013-01-19 11:03:00,
2013-01-19 06:12:00,33.0,24.0,30.49,WNW,291,5.0,13.0,68,-99.99,,,-99.99,,2013-01-19 11:12:00,
2013-01-19 08:03:00,35.0,28.0,30.46,West,273,4.0,8.0,74,-99.99,,,-99.99,,2013-01-19 13:03:00,
2013-01-19 08:13:00,35.0,28.0,30.46,West,273,4.0,8.0,74,-99.99,,,-99.99,,2013-01-19 13:13:00,
2013-01-19 08:23:00,35.0,27.0,30.46,WNW,284,4.0,10.0,73,-99.99,,,-99.99,,2013-01-19 13:23:00,
2013-01-19 08:34:00,35.0,27.0,30.46,WNW,285,5.0,13.0,71,-99.99,,,-99.99,,2013-01-19 13:34:00,
2013-01-19 08:43:00,35.0,27.0,30.46,WNW,285,5.0,13.0,71,-99.99,,,-99.99,,2013-01-19 13:43:00,
2013-01-19 08:54:00,36.0,28.0,30.46,West,271,4.0,14.0,71,-99.99,,,-99.99,,2013-01-19 13:54:00,
2013-01-19 09:03:00,36.0,28.0,30.45,SW,233,5.0,10.0,71,-99.99,,,-99.99,,2013-01-19 14:03:00,
2013-01-19 09:12:00,36.0,28.0,30.45,SW,233,5.0,10.0,71,-99.99,,,-99.99,,2013-01-19 14:12:00,
2013-01-19 09:23:00,37.0,28.0,30.46,WNW,290,5.0,11.0,70,-99.99,,,-99.99,,2013-01-19 14:23:00,
2013-01-19 09:34:00,37.0,28.0,30.46,WNW,290,4.0,9.0,70,-99.99,,,-99.99,,2013-01-19 14:34:00,
2013-01-19 09:43:00,37.0,28.0,30.46,WNW,290,4.0,9.0,70,-99.99,,,-99.99,,2013-01-19 14:43:00,
2013-01-19 09:53:00,37.0,28.0,30.45,West,266,5.0,10.0,69,-99.99,,,-99.99,,2013-01-19 14:53:00,
2013-01-19 10:03:00,38.0,28.0,30.45,WNW,286,5.0,12.0,68,-99.99,,,-99.99,,2013-01-19 15:03:00,
2013-01-19 10:13:00,38.0,28.0,30.45,WNW,286,5.0,12.0,68,-99.99,,,-99.99,,2013-01-19 15:13:00,
2013-01-19 10:23:00,38.0,28.0,30.45,West,271,4.0,9.0,66,-99.99,,,-99.99,,2013-01-19 15:23:00,
2013-01-19 10:33:00,39.0,28.0,30.44,West,263,4.0,11.0,65,-99.99,,,-99.99,,2013-01-19 15:33:00,
2013-01-19 10:43:00,39.0,28.0,30.44,West,263,4.0,11.0,65,-99.99,,,-99.99,,2013-01-19 15:43:00,
2013-01-19 10:53:00,39.0,27.0,30.42,NNW,340,5.0,18.0,63,-99.99,,,-99.99,,2013-01-19 15:53:00,
2013-01-19 11:03:00,40.0,28.0,30.41,WNW,293,5.0,10.0,62,-99.99,,,-99.99,,2013-01-19 16:03:00,
2013-01-19 11:13:00,40.0,28.0,30.41,WNW,293,5.0,10.0,62,-99.99,,,-99.99,,2013-01-19 16:13:00,
2013-01-19 11:23:00,40.0,27.0,30.40,West,259,6.0,15.0,60,-99.99,,,-99.99,,2013-01-19 16:23:00,
2013-01-19 11:33:00,40.0,27.0,30.39,SW,235,5.0,14.0,60,-99.99,,,-99.99,,2013-01-19 16:33:00,
2013-01-19 11:43:00,40.0,27.0,30.39,SW,235,5.0,14.0,60,-99.99,,,-99.99,,2013-01-19 16:43:00,
2013-01-19 11:54:00,40.0,28.0,30.38,WSW,247,6.0,13.0,61,-99.99,,,-99.99,,2013-01-19 16:54:00,
2013-01-19 12:03:00,40.0,28.0,30.36,WNW,284,5.0,20.0,62,-99.99,,,-99.99,,2013-01-19 17:03:00,
2013-01-19 12:21:00,40.0,28.0,30.36,WNW,284,5.0,20.0,62,-99.99,,,-99.99,,2013-01-19 17:21:00,
2013-01-19 12:29:00,40.0,28.0,30.35,West,262,5.0,13.0,61,-99.99,,,-99.99,,2013-01-19 17:29:00,
2013-01-19 12:35:00,40.0,28.0,30.34,WSW,256,5.0,12.0,61,-99.99,,,-99.99,,2013-01-19 17:35:00,
2013-01-19 12:49:00,40.0,28.0,30.34,WSW,256,5.0,12.0,61,-99.99,,,-99.99,,2013-01-19 17:49:00,
2013-01-19 12:55:00,40.0,27.0,30.33,West,267,5.0,15.0,60,-99.99,,,-99.99,,2013-01-19 17:55:00,
2013-01-19 13:12:00,40.0,28.0,30.32,West,269,5.0,15.0,61,-99.99,,,-99.99,,2013-01-19 18:12:00,
2013-01-19 13:28:00,41.0,29.0,30.31,WNW,297,4.0,-999.0,62,-99.99,,,-99.99,,2013-01-19 18:28:00,
2013-01-19 13:37:00,41.0,29.0,30.31,West,269,4.0,4.0,61,-99.99,,,-99.99,,2013-01-19 18:37:00,
2013-01-19 13:48:00,41.0,29.0,30.31,West,269,4.0,4.0,61,-99.99,,,-99.99,,2013-01-19 18:48:00,
2013-01-19 14:03:00,42.0,30.0,30.29,West,269,4.0,11.0,61,-99.99,,,-99.99,,2013-01-19 19:03:00,
2013-01-19 14:09:00,42.0,30.0,30.28,West,276,4.0,9.0,62,-99.99,,,-99.99,,2013-01-19 19:09:00,
2013-01-19 14:21:00,42.0,30.0,30.28,West,276,4.0,9.0,62,-99.99,,,-99.99,,2013-01-19 19:21:00,
2013-01-19 14:30:00,42.0,30.0,30.27,WNW,294,4.0,10.0,62,-99.99,,,-99.99,,2013-01-19 19:30:00,
2013-01-19 14:39:00,42.0,31.0,30.27,West,266,3.0,13.0,64,-99.99,,,-99.99,,2013-01-19 19:39:00,
2013-01-19 14:47:00,42.0,31.0,30.27,West,266,3.0,13.0,64,-99.99,,,-99.99,,2013-01-19 19:47:00,
2013-01-19 14:59:00,42.0,31.0,30.26,West,259,2.0,8.0,64,-99.99,,,-99.99,,2013-01-19 19:59:00,
2013-01-19 15:10:00,42.0,31.0,30.27,West,259,3.0,8.0,64,-99.99,,,-99.99,,2013-01-19 20:10:00,
2013-01-19 15:20:00,42.0,31.0,30.27,West,259,3.0,8.0,64,-99.99,,,-99.99,,2013-01-19 20:20:00,
2013-01-19 15:26:00,42.0,31.0,30.26,West,259,2.0,7.0,66,-99.99,,,-99.99,,2013-01-19 20:26:00,
2013-01-19 15:38:00,43.0,33.0,30.26,West,281,2.0,5.0,67,-99.99,,,-99.99,,2013-01-19 20:38:00,
2013-01-19 15:49:00,43.0,33.0,30.26,West,281,2.0,5.0,67,-99.99,,,-99.99,,2013-01-19 20:49:00,
2013-01-19 15:54:00,43.0,32.0,30.26,WSW,245,2.0,5.0,66,-99.99,,,-99.99,,2013-01-19 20:54:00,
2013-01-19 16:08:00,43.0,33.0,30.26,West,277,2.0,6.0,67,-99.99,,,-99.99,,2013-01-19 21:08:00,
2013-01-19 16:15:00,43.0,33.0,30.26,West,277,2.0,6.0,67,-99.99,,,-99.99,,2013-01-19 21:15:00,
2013-01-19 16:28:00,42.0,33.0,30.25,WNW,293,3.0,7.0,69,-99.99,,,-99.99,,2013-01-19 21:28:00,
2013-01-19 16:45:00,42.0,33.0,30.25,West,262,2.0,5.0,70,-99.99,,,-99.99,,2013-01-19 21:45:00,
2013-01-19 16:51:00,42.0,33.0,30.25,West,262,2.0,5.0,70,-99.99,,,-99.99,,2013-01-19 21:51:00,
2013-01-19 17:01:00,42.0,33.0,30.24,WNW,283,2.0,5.0,71,-99.99,,,-99.99,,2013-01-19 22:01:00,
2013-01-19 17:15:00,42.0,34.0,30.24,West,266,2.0,4.0,72,-99.99,,,-99.99,,2013-01-19 22:15:00,
2013-01-19 17:28:00,42.0,34.0,30.24,West,263,2.0,4.0,73,-99.99,,,-99.99,,2013-01-19 22:28:00,
2013-01-19 17:48:00,42.0,34.0,30.23,West,262,2.0,5.0,74,-99.99,,,-99.99,,2013-01-19 22:48:00,
2013-01-19 17:58:00,42.0,34.0,30.23,West,262,2.0,6.0,74,-99.99,,,-99.99,,2013-01-19 22:58:00,
2013-01-19 18:13:00,41.0,34.0,30.24,SSW,212,2.0,6.0,75,-99.99,,,-99.99,,2013-01-19 23:13:00,
2013-01-19 18:34:00,41.0,34.0,30.23,WNW,287,2.0,5.0,77,-99.99,,,-99.99,,2013-01-19 23:34:00,
2013-01-19 18:47:00,41.0,34.0,30.23,WNW,287,2.0,5.0,77,-99.99,,,-99.99,,2013-01-19 23:47:00,
2013-01-19 19:00:00,41.0,35.0,30.23,West,270,3.0,6.0,78,-99.99,,,-99.99,,2013-01-20 00:00:00,
2013-01-19 19:09:00,41.0,34.0,30.23,West,263,2.0,7.0,77,-99.99,,,-99.99,,2013-01-20 00:09:00,
2013-01-19 19:15:00,41.0,34.0,30.23,West,263,2.0,7.0,77,-99.99,,,-99.99,,2013-01-20 00:15:00,
2013-01-19 19:26:00,41.0,34.0,30.23,WSW,240,2.0,6.0,77,-99.99,,,-99.99,,2013-01-20 00:26:00,
2013-01-19 19:47:00,41.0,34.0,30.22,WSW,257,2.0,7.0,76,-99.99,,,-99.99,,2013-01-20 00:47:00,
2013-01-19 19:54:00,41.0,35.0,30.22,West,269,2.0,6.0,78,-99.99,,,-99.99,,2013-01-20 00:54:00,
2013-01-19 20:04:00,40.0,34.0,30.21,West,260,2.0,4.0,79,-99.99,,,-99.99,,2013-01-20 01:04:00,
2013-01-19 20:22:00,40.0,34.0,30.21,West,260,2.0,4.0,79,-99.99,,,-99.99,,2013-01-20 01:22:00,
2013-01-19 20:28:00,40.0,34.0,30.21,West,260,2.0,4.0,79,-99.99,,,-99.99,,2013-01-20 01:28:00,
2013-01-19 20:37:00,40.0,34.0,30.20,WSW,258,1.0,7.0,80,-99.99,,,-99.99,,2013-01-20 01:37:00,
2013-01-19 20:49:00,40.0,34.0,30.20,WSW,258,1.0,7.0,80,-99.99,,,-99.99,,2013-01-20 01:49:00,
2013-01-19 21:05:00,40.0,35.0,30.20,West,276,2.0,6.0,81,-99.99,,,-99.99,,2013-01-20 02:05:00,
2013-01-19 21:15:00,40.0,35.0,30.19,West,269,2.0,5.0,82,-99.99,,,-99.99,,2013-01-20 02:15:00,
2013-01-19 21:27:00,40.0,35.0,30.19,West,263,2.0,6.0,82,-99.99,,,-99.99,,2013-01-20 02:27:00,
2013-01-19 21:37:00,40.0,35.0,30.18,WNW,284,2.0,6.0,82,-99.99,,,-99.99,,2013-01-20 02:37:00,
2013-01-19 21:45:00,40.0,35.0,30.18,WNW,284,2.0,6.0,82,-99.99,,,-99.99,,2013-01-20 02:45:00,
2013-01-19 21:56:00,40.0,35.0,30.17,West,273,2.0,9.0,81,-99.99,,,-99.99,,2013-01-20 02:56:00,
2013-01-19 22:09:00,40.0,35.0,30.17,WNW,283,2.0,4.0,82,-99.99,,,-99.99,,2013-01-20 03:09:00,
2013-01-19 22:15:00,40.0,35.0,30.17,WNW,283,2.0,4.0,82,-99.99,,,-99.99,,2013-01-20 03:15:00,
2013-01-19 22:25:00,40.0,35.0,30.16,West,281,2.0,5.0,83,-99.99,,,-99.99,,2013-01-20 03:25:00,
2013-01-19 22:38:00,40.0,35.0,30.16,West,264,3.0,6.0,82,-99.99,,,-99.99,,2013-01-20 03:38:00,
2013-01-19 22:45:00,40.0,35.0,30.16,West,264,3.0,6.0,82,-99.99,,,-99.99,,2013-01-20 03:45:00,
2013-01-19 22:58:00,40.0,35.0,30.15,West,264,3.0,8.0,81,-99.99,,,-99.99,,2013-01-20 03:58:00,
2013-01-19 23:05:00,41.0,35.0,30.14,WSW,250,3.0,9.0,79,-99.99,,,-99.99,,2013-01-20 04:05:00,
2013-01-19 23:15:00,41.0,35.0,30.14,WSW,250,3.0,9.0,79,-99.99,,,-99.99,,2013-01-20 04:15:00,
2013-01-19 23:27:00,41.0,35.0,30.14,West,260,3.0,8.0,79,-99.99,,,-99.99,,2013-01-20 04:27:00,
2013-01-19 23:36:00,41.0,35.0,30.13,West,260,3.0,8.0,79,-99.99,,,-99.99,,2013-01-20 04:36:00,
2013-01-19 23:45:00,41.0,35.0,30.13,West,260,3.0,8.0,79,-99.99,,,-99.99,,2013-01-20 04:45:00,
2013-01-19 23:58:00,41.0,35.0,30.12,West,280,4.0,8.0,78,-99.99,,,-99.99,,2013-01-20 04:58:00,